This is the latest recevied weather packets stored in our database for station/object OK1TBM-13. If no packets are shown the sender has not sent any weather packets the latest 10 day(s).
| Time | Temp. | Humidity | Pressure | Rain* | Wind** | Luminosity | Snow |
|---|---|---|---|---|---|---|---|
| 1787937002 | 27.78° C | 48% | 1010.8 hPa | 0 mm | - | 21 W/m² | - |
| 1787936702 | 28.33° C | 46% | 1010.8 hPa | 0 mm | - | 22 W/m² | - |
| 1787936400 | 28.33° C | 45% | 1010.8 hPa | 0 mm | - | 25 W/m² | - |
| 1787936101 | 28.33° C | 44% | 1010.8 hPa | 0 mm | - | 26 W/m² | - |
| 1787935800 | 28.89° C | 44% | 1010.8 hPa | 0 mm | - | 32 W/m² | - |
| 1787935500 | 29.44° C | 43% | 1010.8 hPa | 0 mm | - | 39 W/m² | - |
| 1787935200 | 29.44° C | 44% | 1010.8 hPa | 0 mm | - | 48 W/m² | - |
| 1787934901 | 29.44° C | 42% | 1010.5 hPa | 0 mm | - | 62 W/m² | - |
| 1787934601 | 30° C | 41% | 1010.5 hPa | 0 mm | - | 76 W/m² | - |
| 1787934301 | 30.56° C | 41% | 1011.2 hPa | 0 mm | - | 89 W/m² | - |
| 1787933700 | 30.56° C | 40% | 1011.2 hPa | 0 mm | - | 108 W/m² | - |
| 1787933401 | 30.56° C | 41% | 1011.2 hPa | 0 mm | - | 114 W/m² | - |
| 1787933101 | 30.56° C | 40% | 1011.2 hPa | 0 mm | - | 106 W/m² | - |
| 1787932801 | 30.56° C | 40% | 1011.2 hPa | 0 mm | - | 89 W/m² | - |
| 1787932500 | 31.67° C | 39% | 1011.2 hPa | 0 mm | - | 157 W/m² | - |
| 1787932201 | 30.56° C | 39% | 1011.2 hPa | 0 mm | - | 161 W/m² | - |
| 1787931900 | 30.56° C | 40% | 1011.5 hPa | 0 mm | - | 150 W/m² | - |
| 1787931601 | 31.11° C | 38% | 1011.5 hPa | 0 mm | - | 119 W/m² | - |
| 1787931300 | 31.67° C | 38% | 1011.2 hPa | 0 mm | - | 200 W/m² | - |
| 1787931000 | 31.67° C | 38% | 1011.2 hPa | 0 mm | - | 215 W/m² | - |
| 1787930700 | 31.67° C | 37% | 1011.2 hPa | 0 mm | - | 187 W/m² | - |
| 1787930401 | 31.67° C | 37% | 1011.2 hPa | 0 mm | - | 240 W/m² | - |
| 1787929801 | 31.67° C | 38% | 1011.2 hPa | 0 mm | - | 250 W/m² | - |
| 1787929501 | 31.67° C | 38% | 1011.2 hPa | 0 mm | - | 266 W/m² | - |
| 1787929205 | 31.67° C | 38% | 1011.2 hPa | 0 mm | - | 285 W/m² | - |
* Rain latest hour (hover to see other rain measurements)
** Current wind speed in m/s (hover to see current wind gust speed)